Regional Weather Roundup
Issued by NWS

Home | Current Version | Previous Version | Text Only | Print | Product List | Glossary Off
Versions: 1 2 3 4 5 6 7 8 9 10 11 12 13 14 15 16 17 18 19 20 21 22 23 24 25 26 27 28 29 30 31 32 33 34 35 36 37 38 39 40 41 42 43 44 45 46 47 48 49 50

495
ASUS45 KBOU 210107
RWRCO

WEATHER ROUNDUP FOR COLORADO
NATIONAL WEATHER SERVICE DENVER/BOULDER CO
700 PM MDT THU JUL 20 2017

NOTE: "FAIR" INDICATES FEW OR NO CLOUDS BELOW 12000 FEET WITH NO
SIGNIFICANT WEATHER AND/OR OBSTRUCTIONS TO VISIBILITY.

COZ001>005-013-030-031-210200-
...NORTHWEST COLORADO...

CITY           SKY/WX    TMP DP  RH WIND       PRES   REMARKS
CRAIG          FAIR      81  45  28 S10       30.16R
HAYDEN         FAIR      81  43  26 W10       30.20R
MEEKER         FAIR      77  58  51 SE16G23   30.21R
RABBIT EARS PA CLOUDY    54  43  66 E6        30.55F
STEAMBOAT SPGS FAIR      71  50  47 E10       30.24S
WALDEN         FAIR      63  45  51 S33G43    30.35R
$$

COZ006>008-011-210200-
...WEST CENTRAL VALLEYS...

CITY           SKY/WX    TMP DP  RH WIND       PRES   REMARKS
GRAND JUNCTION LGT RAIN  80  60  50 E12       30.05F
MONTROSE       FAIR      76  53  44 S18G26    30.18F
EAGLE          PTSUNNY   79  48  34 SW15      30.24R
RIFLE          FAIR      75  54  47 VRB6      30.15R
DELTA          FAIR      83  50  31 SE9       30.14S
NUCLA          FAIR      82  46  28 SE10      30.21R
$$

COZ017>023-064>068-210200-
...SOUTHWEST COLORADO...

CITY           SKY/WX    TMP DP  RH WIND       PRES   REMARKS
DURANGO        PTSUNNY   70  54  56 N20       30.22S
CORTEZ         FAIR      70  52  52 E17G26    30.17S
PAGOSA SPRINGS FAIR      71  47  42 NW14G21   30.31R
TELLURIDE      LGT RAIN  62  49  63 E7G16     30.48R
WOLF CREEK PAS FAIR      55  41  58 SW5       30.70S
$$

COZ009-010-012-014-032>034-037-058>063-210200-
...CENTRAL COLORADO...

CITY           SKY/WX    TMP DP  RH WIND       PRES   REMARKS
ASPEN          LGT RAIN  63  55  75 SE5       30.36R
BUENA VISTA    PTSUNNY   70  48  44 N6        30.35R
COPPER MTN     CLOUDY    59  43  55 S9        30.69S
BERTHOUD PASS  CLOUDY    46  34  61 S3        30.74S THUNDER
COTTONWOOD PAS CLOUDY    68  41  37 CALM      30.51R
GUNNISON       FAIR      71  50  47 SW8       30.32R
KREMMLING      FAIR      72  54  53 NE6       30.34R
LEADVILLE      PTSUNNY   58  48  69 E3        30.48F
MONARCH PASS   FAIR      59  36  41 W9        30.79R
SALIDA         CLOUDY    78  42  27 SE18G28   30.37R
SUNLIGHT       FAIR      52  45  76 CALM      30.61R
WILKERSON PASS CLOUDY    59  43  55 CALM      30.67R
$$

COZ069>075-210200-
...SAN LUIS VALLEY/SANGRE DE CRISTO MOUNTAINS...

CITY           SKY/WX    TMP DP  RH WIND       PRES   REMARKS
ALAMOSA        FAIR      76  48  37 N12       30.25S
DEL NORTE      FAIR      76  47  36 W10       30.31F
LA VETA PASS   NOT AVBL
SAGUACHE         N/A    N/A N/A N/A MISG        N/A
$$

COZ035-036-038>040-210200-
...NORTHERN COLORADO FRONT RANGE...

CITY           SKY/WX    TMP DP  RH WIND       PRES   REMARKS
DENVER INTL AP PTSUNNY   81  54  39 W12       30.10R
DMNS CITY PARK   N/A     80  50  34 SW17G24   30.11R
AURORA         PTSUNNY   77  59  54 W10       30.13R
FRONT RANGE AP FAIR      82  54  36 SW13G25   30.12R
ERIE MUNI ARPT FAIR      87  49  27 S9        30.09S
BOULDER MUN AP FAIR      82  45  26 SW12G17   30.10R
CENTENNIAL     PTSUNNY   78  54  43 W13       30.16R THUNDER
BROOMFIELD     FAIR      81  46  30 SW6       30.12F
FORT COLLINS   FAIR      86  57  37 SW9       30.06F
LONGMONT       FAIR      86  48  27 CALM      30.10R
$$

COZ041-046-047-076>085-087-088-210200-
...PIKES PEAK/PALMER DIVIDE AND SOUTHERN FOOTHILLS...

CITY           SKY/WX    TMP DP  RH WIND       PRES   REMARKS
COLO. SPRINGS  PTSUNNY   84  57  39 S5        30.17R
A. F. ACADEMY  PTSUNNY   78  53  43 N14       30.21R
SCHRIEVER AFB  FAIR      81  55  39 S3        30.17S
CHEYENNE MTN   PTSUNNY   80  46  29 MISG      30.18S
ELLICOTT       FAIR     N/A N/A N/A S6        30.15S
FALCON           N/A     79  53  40 SE3       30.25R
FORT CARSON    FAIR      83  53  35 W6        30.12S
LIMON          FAIR      83  57  41 E3        30.08F
MONUMENT HILL  FAIR      72  54  53 NW6       30.29R
CANON CITY     MOSUNNY   73  57  56 W13       30.10F
WALSENBURG     FAIR      88  41  19 SE7       30.12R
TRINIDAD       FAIR      92  36  14 S13       30.10S
$$

COZ042>045-048>051-090-091-210200-
...NORTHEAST COLORADO...

CITY           SKY/WX    TMP DP  RH WIND       PRES   REMARKS
GREELEY ARPT   FAIR      88  57  34 SW9       30.02F
AKRON          FAIR      89  56  32 E8        30.02F
BURLINGTON     FAIR      93  61  34 SE5       30.00S
WRAY           NOT AVBL
YUMA           FAIR      86  46  25 NE5       29.99S
STERLING       FAIR      86  61  42 NE6       29.97F
HOLYOKE        FAIR      91  63  38 E5        29.97S
FORT MORGAN    FAIR      88  54  31 E8        30.01F
$$

COZ086-089-092>099-210200-
...SOUTHEAST COLORADO...

CITY           SKY/WX    TMP DP  RH WIND       PRES   REMARKS
PUEBLO         FAIR      87  52  29 W20       30.03R
LA JUNTA       FAIR      95  57  27 E7        29.99S
LAMAR          FAIR      94  61  33 E9        29.93S
SPRINGFIELD      N/A     90  50  25 S16       30.02S
$$




USA.gov is the U.S. government's official web portal to all federal, state and local government web resources and services.